When you browse on this site, cookies collect data to enhance your experience and personalize the content and advertising you see.
Visit our Privacy Policy to learn more. By continuing to use the site, you agree to this use of cookies and data.
  • In Österreich
  • Länderverzeichnis
  • Für 7 Tage
  • Wassertemperatur
  • Satellitenkarten
  • Wetterkarte
  • News
  • Widgets
  • user-avatar
    Anmelden

    Stündliche Wetter Oran

    Heute, 21 Juli, Sonntag

    Zeit Temperatur Niederschläge Wind Luftdruck Luftfeuchtigkeit
    00:00 +26°C° 0 mm 3 m/S 751 mmHg 84%
    01:00 +26°C° 0 mm 3 m/S 751 mmHg 85%
    02:00 +26°C° 0 mm 3 m/S 751 mmHg 87%
    03:00 +26°C° 0 mm 4 m/S 750 mmHg 88%
    04:00 +26°C° 0 mm 3 m/S 751 mmHg 87%
    05:00 +26°C° 0 mm 3 m/S 751 mmHg 85%
    06:00 +26°C° 0 mm 2 m/S 751 mmHg 83%
    07:00 +27°C° 0 mm 2 m/S 752 mmHg 77%
    08:00 +28°C° 0 mm 2 m/S 752 mmHg 72%
    09:00 +29°C° 0 mm 2 m/S 752 mmHg 66%
    10:00 +30°C° 0 mm 3 m/S 752 mmHg 62%
    11:00 +31°C° 0 mm 3 m/S 752 mmHg 59%
    12:00 +33°C° 0 mm 4 m/S 752 mmHg 55%
    13:00 +33°C° 0 mm 4 m/S 752 mmHg 56%
    14:00 +33°C° 0 mm 4 m/S 752 mmHg 56%
    15:00 +33°C° 0 mm 4 m/S 751 mmHg 57%
    16:00 +33°C° 0 mm 3 m/S 752 mmHg 57%
    17:00 +33°C° 0 mm 3 m/S 752 mmHg 57%
    18:00 +32°C° 0 mm 2 m/S 752 mmHg 58%
    19:00 +31°C° 0 mm 2 m/S 752 mmHg 62%
    20:00 +30°C° 0 mm 1 m/S 753 mmHg 66%
    21:00 +29°C° 0 mm 1 m/S 753 mmHg 70%
    22:00 +28°C° 0 mm 1 m/S 753 mmHg 72%
    23:00 +28°C° 0 mm 2 m/S 753 mmHg 75%

    Morgen, 22 Juli, Montag

    Zeit Temperatur Niederschläge Wind Luftdruck Luftfeuchtigkeit
    00:00 +27°C° 0 mm 2 m/S 753 mmHg 77%
    01:00 +27°C° 0 mm 2 m/S 753 mmHg 80%
    02:00 +26°C° 0 mm 1 m/S 752 mmHg 82%
    03:00 +26°C° 0 mm 1 m/S 752 mmHg 85%
    04:00 +26°C° 0 mm 1 m/S 752 mmHg 83%
    05:00 +26°C° 0 mm 1 m/S 752 mmHg 82%
    06:00 +27°C° 0 mm 1 m/S 753 mmHg 80%
    07:00 +29°C° 0 mm 2 m/S 753 mmHg 70%
    08:00 +30°C° 0 mm 2 m/S 753 mmHg 61%
    09:00 +32°C° 0 mm 2 m/S 753 mmHg 51%
    10:00 +35°C° 0 mm 3 m/S 753 mmHg 48%
    11:00 +36°C° 0 mm 4 m/S 753 mmHg 44%
    12:00 +37°C° 0 mm 5 m/S 753 mmHg 41%
    13:00 +37°C° 0 mm 5 m/S 752 mmHg 43%
    14:00 +36°C° 0 mm 5 m/S 752 mmHg 45%
    15:00 +36°C° 0 mm 5 m/S 751 mmHg 46%
    16:00 +35°C° 0 mm 6 m/S 751 mmHg 48%
    17:00 +34°C° 0 mm 6 m/S 751 mmHg 49%
    18:00 +33°C° 0 mm 6 m/S 751 mmHg 50%
    19:00 +33°C° 0 mm 5 m/S 751 mmHg 50%
    20:00 +33°C° 0 mm 4 m/S 752 mmHg 50%
    21:00 +31°C° 0 mm 3 m/S 752 mmHg 50%
    22:00 +30°C° 0 mm 3 m/S 752 mmHg 57%
    23:00 +29°C° 0 mm 3 m/S 752 mmHg 63%

    übermorgen, 23 Juli, Dienstag

    Zeit Temperatur Niederschläge Wind Luftdruck Luftfeuchtigkeit
    00:00 +28°C° 0 mm 3 m/S 751 mmHg 70%
    01:00 +27°C° 0 mm 2 m/S 751 mmHg 72%
    02:00 +27°C° 0 mm 2 m/S 751 mmHg 75%
    03:00 +26°C° 0 mm 1 m/S 750 mmHg 77%
    04:00 +27°C° 0 mm 1 m/S 750 mmHg 75%
    05:00 +27°C° 0 mm 1 m/S 750 mmHg 74%
    06:00 +27°C° 0 mm 1 m/S 750 mmHg 72%
    07:00 +29°C° 0 mm 1 m/S 750 mmHg 64%
    08:00 +31°C° 0 mm 1 m/S 750 mmHg 55%
    09:00 +32°C° 0 mm 1 m/S 751 mmHg 47%
    10:00 +35°C° 0 mm 2 m/S 751 mmHg 42%
    11:00 +37°C° 0 mm 2 m/S 750 mmHg 38%
    12:00 +38°C° 0 mm 2 m/S 750 mmHg 33%
    13:00 +39°C° 0 mm 3 m/S 750 mmHg 33%
    14:00 +40°C° 0 mm 4 m/S 750 mmHg 34%
    15:00 +40°C° 0 mm 5 m/S 749 mmHg 34%
    16:00 +37°C° 0 mm 5 m/S 749 mmHg 38%
    17:00 +36°C° 0 mm 4 m/S 749 mmHg 41%
    18:00 +34°C° 0 mm 4 m/S 749 mmHg 44%
    19:00 +33°C° 0 mm 3 m/S 749 mmHg 48%
    20:00 +31°C° 0 mm 2 m/S 749 mmHg 53%
    21:00 +30°C° 0 mm 2 m/S 750 mmHg 57%
    22:00 +28°C° 0 mm 2 m/S 750 mmHg 64%
    23:00 +27°C° 0 mm 2 m/S 750 mmHg 71%

    24 Juli, Mittwoch

    Zeit Temperatur Niederschläge Wind Luftdruck Luftfeuchtigkeit
    00:00 +26°C° 0 mm 3 m/S 750 mmHg 77%
    01:00 +26°C° 0 mm 2 m/S 749 mmHg 79%
    02:00 +26°C° 0 mm 2 m/S 749 mmHg 80%
    03:00 +26°C° 0 mm 1 m/S 749 mmHg 81%
    04:00 +26°C° 0 mm 1 m/S 749 mmHg 80%
    05:00 +26°C° 0 mm 1 m/S 749 mmHg 79%
    06:00 +26°C° 0 mm 1 m/S 749 mmHg 78%
    07:00 +28°C° 0 mm 1 m/S 749 mmHg 70%
    08:00 +29°C° 0 mm 1 m/S 750 mmHg 62%
    09:00 +31°C° 0 mm 2 m/S 750 mmHg 54%
    10:00 +32°C° 0 mm 2 m/S 750 mmHg 50%
    11:00 +35°C° 0 mm 2 m/S 750 mmHg 45%
    12:00 +36°C° 0 mm 2 m/S 749 mmHg 41%
    13:00 +37°C° 0 mm 3 m/S 749 mmHg 40%
    14:00 +37°C° 0 mm 3 m/S 749 mmHg 39%
    15:00 +38°C° 0 mm 3 m/S 748 mmHg 38%
    16:00 +37°C° 0 mm 4 m/S 748 mmHg 38%
    17:00 +37°C° 0 mm 4 m/S 748 mmHg 38%
    18:00 +36°C° 0 mm 5 m/S 748 mmHg 39%
    19:00 +35°C° 0 mm 4 m/S 748 mmHg 41%
    20:00 +34°C° 0 mm 4 m/S 749 mmHg 43%
    21:00 +33°C° 0 mm 3 m/S 749 mmHg 45%
    22:00 +30°C° 0 mm 3 m/S 749 mmHg 53%
    23:00 +29°C° 0 mm 3 m/S 749 mmHg 60%

    25 Juli, Donnerstag

    Zeit Temperatur Niederschläge Wind Luftdruck Luftfeuchtigkeit
    00:00 +28°C° 0 mm 2 m/S 748 mmHg 68%
    01:00 +27°C° 0 mm 2 m/S 748 mmHg 72%
    02:00 +27°C° 0 mm 2 m/S 748 mmHg 77%
    03:00 +26°C° 0 mm 2 m/S 748 mmHg 81%
    04:00 +26°C° 0 mm 3 m/S 748 mmHg 81%
    05:00 +26°C° 0 mm 3 m/S 749 mmHg 81%
    06:00 +26°C° 0 mm 3 m/S 749 mmHg 82%
    07:00 +27°C° 0 mm 3 m/S 749 mmHg 73%
    08:00 +29°C° 0 mm 4 m/S 749 mmHg 65%
    09:00 +32°C° 0 mm 4 m/S 750 mmHg 57%
    10:00 +33°C° 0 mm 4 m/S 750 mmHg 53%
    11:00 +34°C° 0 mm 4 m/S 750 mmHg 50%
    12:00 +35°C° 0 mm 4 m/S 749 mmHg 46%
    13:00 +35°C° 0 mm 4 m/S 749 mmHg 45%
    14:00 +35°C° 0 mm 3 m/S 749 mmHg 44%
    15:00 +35°C° 0 mm 3 m/S 749 mmHg 44%
    16:00 +35°C° 0 mm 3 m/S 748 mmHg 45%
    17:00 +34°C° 0 mm 2 m/S 748 mmHg 46%
    18:00 +33°C° 0 mm 1 m/S 748 mmHg 47%
    19:00 +31°C° 0 mm 2 m/S 748 mmHg 51%
    20:00 +30°C° 0 mm 2 m/S 749 mmHg 54%
    21:00 +29°C° 0 mm 3 m/S 749 mmHg 58%
    22:00 +28°C° 0 mm 3 m/S 749 mmHg 63%
    23:00 +27°C° 0 mm 3 m/S 750 mmHg 69%

    26 Juli, Freitag

    Zeit Temperatur Niederschläge Wind Luftdruck Luftfeuchtigkeit
    00:00 +27°C° 0 mm 3 m/S 750 mmHg 74%
    01:00 +26°C° 0 mm 3 m/S 749 mmHg 75%
    02:00 +26°C° 0 mm 2 m/S 749 mmHg 75%
    03:00 +26°C° 0 mm 2 m/S 749 mmHg 76%
    04:00 +26°C° 0 mm 2 m/S 749 mmHg 74%
    05:00 +26°C° 0 mm 2 m/S 749 mmHg 72%
    06:00 +27°C° 0 mm 2 m/S 749 mmHg 69%
    07:00 +29°C° 0 mm 3 m/S 750 mmHg 59%
    08:00 +32°C° 0 mm 4 m/S 750 mmHg 48%
    09:00 +34°C° 0 mm 5 m/S 750 mmHg 38%
    10:00 +35°C° 0 mm 5 m/S 750 mmHg 34%
    11:00 +36°C° 0 mm 6 m/S 750 mmHg 30%
    12:00 +38°C° 0 mm 7 m/S 750 mmHg 27%
    13:00 +38°C° 0 mm 7 m/S 750 mmHg 28%
    14:00 +38°C° 0 mm 7 m/S 750 mmHg 30%
    15:00 +38°C° 0 mm 6 m/S 749 mmHg 32%
    16:00 +36°C° 0 mm 6 m/S 749 mmHg 35%
    17:00 +35°C° 0 mm 5 m/S 749 mmHg 37%
    18:00 +33°C° 0 mm 5 m/S 749 mmHg 40%
    19:00 +32°C° 0 mm 4 m/S 750 mmHg 44%
    20:00 +30°C° 0 mm 3 m/S 750 mmHg 48%
    21:00 +29°C° 0 mm 2 m/S 751 mmHg 52%
    22:00 +28°C° 0 mm 2 m/S 751 mmHg 53%
    23:00 +28°C° 0 mm 1 m/S 751 mmHg 55%
    Mehr zeigen